Probability
3 0 0 0 0 0 0 0 0 0 0 0 0 0 0 0 0 0 0 0 0 0 0 0 0 0 0 0 0 0 0 0 0 0 0 0 0 0
3 0 0 0 0 0 0 0 0 0 0 0 0 0 0 0 0 0 0 0 0 0 0 0 0 0 0 0 0 0 0 0 0 0 0 0 0 3
0 0 0 0 0 0 0 0 0 0 0 0 0 0 0 0 0 0 0 0 0 0 0 0 0 0 0 0 0 0 0 0 0 0 0 0 0 0
0 0 0 0 0 0 0 0 0 0 0 0 0 0 0 0 0 0 0 0 0 0 0 0 0 0 0 0 0 0 0 0 0 0 0 0 0 0
0 0 0 0 0 0 0 0 0 0 0 0 0 0 0 0 0 0 0 0 0 0 0 0 0 0 0 0 0 0 0 0 0 0 0 0 0 0
0 0 0 0 0 0 0 0 0 0 0 0 0 0 0 0 0 0 0 0 0 0 0 0 0 0 0 0 0 0 0 0 0 0 0 0 0 0
0 0 0 0 0 0 0 0 0 0 0 0 0 0 0 0 0 0 0 0 0 0 0 0 0 0 0 0 0 0 0 0 0 0 0 0 0 0
0 0 0 0 0 0 0 0 0 0 0 0 0 0 0 0 0 0 0 0 0 0 0 0 0 0 0 0 0 0 0 0 0 0 0 0 0 0
0 0 0 0 0 0 0 0 0 0 0 0 0 0 0 0 0 0 0 0 0 0 0 0 0 0 0 0 0 0 0 0 0 0 0 0 0 0
0 0 0 0 0 0 0 0 0 0 0 0 0 0 0 0 0 0 0 0 0 0 0 0 0 0 0 0 0 0 0 0 0 0 0 0 0 0
0 0 0 0 0 0 0 0 0 0 0 0 0 0 0 0 0 0 0 0 0 0 0 0 0 0 0 0 0 0 0 0 0 0 0 0 0 0
0 0 0 0 0 0 0 0 0 0 0 0 0 0 0 0 0 0 0 0 0 0 0 0 0 0 0 0 0 0 0 0 0 0 0 0 0 0
0 0 0 0 0 0 0 0 0 0 0 0 0 0 0 0 0 0 0 0 0 0 0 0 0 0 0 0 0 0 0 0 0 0 0 0 0 0
0 0 0 0 0 0 0 0 0 0 0 0 0 0 0 0 0 0 0 0 0 0 0 0 0 0 0 0 0 0 0 0 0 0 0 0 0 0
0 0 0 0 0 0 0 0 0 0 0 0 0 0 0 0 0 0 0 0 0 0 0 0 0 0 0 0 0 0 0 0 0 0 0 0 0 0
0 0 0 0 0 0 0 0 0 0 0 0 0 0 0 0 0 0 0 0 0 0 0 0 0 0 0 0 0 0 0 0 0 0 0 0 0 0
0 0 0 0 0 0 0 0 0 0 0 0 0 0 0 0 0 0 0 0 0 0 0 0 0 0 0 0 0 0 0 0 0 0 0 0 0 0
0 0 0 0 0 0 0 0 0 0 0 0 0 0 0 0 0 0 0 0 0 0 0 0 0 0 0 0 0 0 0 0 0 0 0 0 0 0
0 0 0 0 0 0 0 0 0 0 0 0 0 0 0 0 0 0 0 0 0 0 0 0 0 0 0 0 0 0 0 0 0 0 0 0 0 0
0 0 0 0 0 0 0 0 0 0 0 0 0 0 0 0 0 0 0 0 0 0 0 0 0 0 0 0 0 0 0 0 0 0 0 0 0 0
0 0 0 0 0 0 0 0 0 0 0 0 0 0 0 0 0 0 0 0 0 0 0 0 0 0 0 0 0 0 0 0 0 0 0 0 0 0
0 0 0 0 0 0 0 0 0 0 0 0 0 0 0 0 0 0 0 0 0 0 0 0 0 0 0 0 0 0 0 0 0 0 0 0 0 0
0 0 0 0 0 0 0 0 0 0 0 0 0 0 0 0 0 0 0 0 0 0 0 0 0 0 0 0 0 0 0 0 0 0 0 0 0 0
Height
5722 5720 5718 5716 5714 5713 5711 5710 5710 5709 5710 5709 5708 5707 5707 5707 5707 5707 5707 5708 5708 5709 5711 5712 5713 5715 5717 5720 5723 5726 5729 5732 5736 5739 5743 5746 5750 5754
5715 5713 5711 5709 5707 5705 5704 5702 5701 5701 5701 5700 5699 5698 5697 5697 5697 5697 5697 5698 5699 5699 5700 5701 5703 5704 5707 5709 5712 5715 5718 5721 5724 5727 5731 5735 5739 5743
5709 5708 5705 5703 5701 5699 5697 5695 5694 5692 5692 5692 5691 5690 5689 5688 5688 5688 5688 5689 5689 5690 5690 5691 5693 5694 5696 5698 5701 5703 5706 5709 5712 5715 5719 5723 5727 5732
5705 5702 5700 5697 5695 5692 5690 5688 5687 5685 5684 5684 5683 5682 5681 5680 5679 5679 5679 5679 5680 5681 5681 5682 5683 5684 5686 5688 5689 5692 5694 5697 5700 5704 5708 5712 5716 5720
5700 5698 5695 5692 5689 5687 5684 5682 5680 5679 5678 5677 5676 5675 5673 5672 5671 5671 5670 5670 5671 5671 5672 5673 5673 5674 5676 5678 5679 5681 5683 5686 5689 5692 5695 5699 5703 5708
5695 5693 5690 5687 5684 5682 5679 5677 5675 5673 5671 5670 5668 5667 5666 5665 5664 5663 5662 5662 5662 5663 5663 5663 5664 5665 5667 5668 5669 5671 5672 5674 5677 5680 5683 5687 5691 5695
5692 5689 5686 5683 5680 5677 5674 5672 5670 5668 5666 5664 5662 5660 5659 5657 5656 5655 5654 5654 5654 5654 5654 5655 5655 5656 5656 5657 5659 5660 5662 5663 5665 5668 5671 5675 5679 5683
5688 5685 5682 5679 5676 5673 5670 5667 5665 5662 5660 5658 5656 5654 5652 5650 5648 5647 5646 5646 5646 5646 5645 5645 5645 5645 5646 5647 5648 5649 5651 5652 5654 5656 5659 5662 5666 5670
5685 5682 5679 5676 5672 5669 5666 5663 5660 5657 5654 5652 5650 5647 5645 5643 5641 5640 5638 5637 5636 5635 5635 5635 5635 5635 5636 5636 5637 5638 5640 5641 5643 5644 5647 5650 5654 5658
5683 5679 5676 5672 5668 5665 5661 5658 5655 5651 5648 5645 5643 5640 5637 5635 5633 5631 5629 5628 5626 5625 5625 5625 5625 5625 5625 5626 5626 5627 5628 5630 5632 5634 5636 5639 5643 5646
5680 5676 5672 5668 5664 5660 5656 5652 5649 5645 5642 5639 5636 5633 5630 5627 5624 5622 5620 5618 5617 5616 5615 5615 5615 5615 5615 5616 5616 5617 5618 5619 5621 5623 5626 5629 5631 5634
5677 5672 5668 5663 5659 5654 5650 5646 5643 5639 5636 5632 5629 5625 5622 5619 5616 5613 5611 5609 5607 5606 5605 5605 5605 5605 5606 5606 5606 5606 5607 5609 5611 5612 5615 5617 5620 5622
5673 5669 5664 5659 5654 5649 5645 5641 5637 5633 5629 5626 5622 5618 5615 5611 5608 5605 5602 5599 5597 5596 5595 5595 5595 5595 5595 5596 5596 5596 5597 5598 5600 5601 5603 5606 5608 5611
5669 5665 5660 5655 5650 5645 5640 5636 5631 5627 5623 5619 5616 5612 5608 5604 5600 5597 5594 5591 5588 5586 5585 5585 5585 5585 5585 5585 5586 5586 5587 5588 5589 5591 5592 5594 5596 5599
5665 5660 5655 5650 5645 5640 5635 5630 5625 5621 5617 5613 5609 5605 5601 5597 5593 5589 5586 5583 5580 5577 5576 5575 5575 5575 5575 5575 5576 5576 5577 5577 5578 5580 5582 5583 5586 5588
5661 5656 5650 5645 5640 5635 5630 5625 5620 5616 5611 5607 5603 5599 5594 5590 5586 5582 5578 5575 5572 5569 5567 5566 5565 5565 5565 5566 5566 5567 5567 5568 5569 5570 5571 5573 5575 5577
5656 5651 5646 5641 5635 5630 5625 5620 5615 5610 5606 5601 5597 5592 5588 5583 5579 5575 5571 5568 5565 5562 5560 5558 5557 5556 5556 5557 5557 5557 5558 5558 5559 5560 5561 5563 5565 5566
5653 5648 5642 5637 5632 5626 5621 5616 5611 5606 5601 5596 5591 5586 5582 5577 5573 5568 5564 5561 5558 5555 5553 5551 5550 5549 5548 5548 5548 5548 5549 5549 5550 5550 5551 5553 5555 5557
5649 5644 5638 5633 5628 5622 5617 5611 5606 5600 5595 5590 5585 5581 5576 5571 5567 5563 5559 5555 5552 5549 5546 5544 5543 5542 5541 5541 5541 5540 5541 5541 5541 5542 5543 5544 5546 5548
5645 5640 5635 5630 5624 5618 5612 5606 5601 5595 5590 5585 5580 5576 5571 5567 5562 5558 5554 5550 5547 5544 5541 5539 5537 5536 5535 5535 5535 5534 5534 5534 5534 5534 5535 5536 5537 5539
5641 5636 5631 5626 5620 5614 5608 5603 5597 5592 5586 5581 5576 5571 5567 5562 5558 5554 5550 5547 5543 5540 5537 5535 5533 5532 5531 5530 5530 5529 5528 5527 5527 5527 5528 5529 5530 5531
5638 5633 5627 5622 5616 5611 5605 5599 5594 5588 5583 5578 5573 5568 5563 5559 5555 5551 5547 5544 5540 5537 5534 5531 5529 5528 5527 5526 5525 5524 5523 5522 5522 5521 5522 5522 5523 5524
5634 5629 5624 5618 5613 5607 5601 5596 5591 5585 5580 5575 5570 5565 5561 5556 5552 5548 5544 5541 5537 5534 5531 5528 5527 5525 5523 5522 5521 5520 5519 5518 5517 5517 5517 5516 5516 5517
Wind_Speed
22 22 23 23 24 24 25 25 25 26 27 28 29 30 30 30 31 32 32 32 32 33 35 35 35 35 35 36 37 39 39 40 41 41 41 41 41 42
21 21 22 22 23 23 24 24 25 25 25 27 27 28 29 30 31 31 31 31 32 33 33 34 34 35 36 37 37 38 40 41 42 42 42 41 41 42
21 21 21 22 21 22 23 23 24 24 24 24 25 25 26 27 28 30 30 29 30 30 31 32 34 35 35 36 37 38 38 40 40 42 43 43 42 42
19 20 20 21 21 21 21 22 22 22 23 23 23 25 25 26 27 27 28 28 28 29 29 31 32 34 35 35 36 37 38 39 41 42 44 45 44 44
18 19 20 20 20 20 20 20 20 20 21 22 23 24 24 24 25 25 27 27 28 28 29 29 30 32 33 34 34 35 37 38 40 42 43 45 46 46
17 18 19 19 19 18 19 18 18 19 20 21 22 22 23 24 24 25 26 27 28 28 29 29 30 31 32 33 32 33 35 37 39 41 43 44 45 46
17 17 18 17 17 18 17 17 17 19 20 21 21 21 22 23 24 25 26 27 28 28 29 30 31 32 32 33 33 35 35 37 39 40 42 44 44 44
16 17 17 17 18 18 18 18 19 19 20 20 21 22 22 23 24 25 25 26 27 28 29 29 30 31 32 33 33 34 35 37 38 39 41 42 43 44
18 19 19 19 20 21 20 20 20 19 20 20 21 22 22 23 24 25 25 26 27 27 28 28 29 30 32 33 34 35 36 36 37 37 39 41 42 43
19 20 21 21 22 22 21 22 21 21 21 22 22 23 23 23 24 25 25 26 27 27 28 28 29 30 31 32 33 34 35 35 36 36 36 38 40 42
20 21 22 23 23 23 23 23 22 22 22 22 23 24 24 24 25 26 26 27 27 27 28 28 28 28 30 31 32 33 34 35 36 36 37 38 39 40
21 22 23 24 24 25 24 24 23 23 23 23 23 24 24 24 25 25 26 26 26 26 26 27 28 28 29 30 31 32 33 34 35 36 37 38 39 41
22 23 24 25 25 25 25 24 23 23 24 24 24 24 24 24 24 25 25 26 26 26 27 27 27 28 29 30 30 31 31 32 34 35 36 37 38 40
23 24 24 25 25 26 25 25 24 24 24 23 23 23 24 24 24 24 25 25 26 26 27 27 27 27 28 28 28 29 30 32 33 34 35 35 37 39
24 25 25 26 26 26 27 26 25 25 25 24 24 24 24 24 24 24 24 25 25 25 25 25 26 27 27 28 28 28 28 30 31 32 34 34 35 36
24 25 26 26 26 26 26 26 25 25 24 24 24 24 24 24 25 25 24 24 23 23 23 23 24 25 25 27 27 28 29 29 30 31 32 33 34 35
24 25 25 26 27 27 26 26 26 25 25 24 24 24 25 25 25 25 24 23 22 22 21 22 23 23 24 25 26 26 27 28 29 29 30 30 31 31
24 25 26 26 27 27 26 26 26 26 25 25 24 24 25 25 25 24 23 22 21 21 20 20 20 21 21 22 23 24 25 25 26 26 27 28 28 28
24 25 26 26 26 27 26 26 26 26 25 25 24 24 24 24 24 23 22 21 20 19 19 19 19 19 18 19 20 21 22 23 24 24 25 26 26 27
24 24 25 25 26 27 27 26 25 25 25 24 24 24 23 23 23 22 21 20 19 19 18 17 17 17 17 18 19 20 20 21 21 22 22 23 24 25
25 24 25 25 26 27 26 26 25 24 24 24 24 24 23 23 22 21 20 19 18 18 17 16 15 15 15 15 15 16 16 17 18 19 19 20 21 22
25 25 25 25 26 27 27 26 25 24 24 24 24 24 23 22 21 20 19 18 18 17 16 15 14 14 14 14 13 14 14 15 15 16 17 18 19 20
25 25 25 26 27 27 27 26 25 25 24 24 24 23 22 21 20 19 18 18 18 17 15 13 12 13 12 12 12 12 13 14 14 15 15 16 16 17
Wind_Direction
294 295 293 291 289 287 284 281 277 273 270 269 268 268 268 267 266 265 264 261 260 260 259 258 256 253 250 247 245 245 245 244 244 243 243 243 242 241
295 295 295 294 293 290 287 283 279 278 275 270 269 268 267 267 265 264 263 262 261 260 259 259 256 253 252 250 247 245 245 245 244 242 242 242 242 241
297 297 298 297 296 293 290 285 281 279 277 275 274 273 271 270 268 267 265 263 262 262 260 258 255 253 253 252 250 246 245 245 244 243 242 242 242 241
303 304 303 302 300 298 294 289 285 281 278 277 277 276 277 276 274 270 267 266 265 263 261 259 257 254 254 254 252 249 246 245 244 244 243 242 242 241
308 310 310 308 306 304 303 297 290 286 283 281 279 278 278 279 278 275 271 268 267 265 263 262 259 257 254 255 254 253 249 246 244 244 243 242 241 241
312 313 316 315 313 311 312 307 297 293 290 286 284 283 281 279 277 275 272 269 268 266 265 263 261 259 257 256 255 254 251 248 247 245 243 242 242 242
320 320 319 318 317 317 315 310 304 299 295 291 289 288 286 282 279 276 274 271 270 267 266 265 262 260 259 259 257 257 254 250 249 247 244 243 242 242
326 326 325 322 321 321 319 314 307 304 299 294 292 291 290 286 283 280 278 276 273 269 267 266 265 262 261 261 260 257 255 252 250 249 246 244 243 243
330 329 328 327 324 322 321 318 313 307 302 298 296 294 292 289 286 284 282 280 276 271 268 266 265 264 262 262 261 259 257 253 251 249 247 245 244 244
331 331 328 327 324 323 321 319 317 312 308 304 301 299 296 295 291 288 285 282 278 273 269 266 264 265 264 262 261 260 258 255 253 250 248 246 246 245
331 330 329 327 326 324 322 320 318 315 312 308 305 303 301 298 295 290 288 284 280 275 270 268 266 266 266 264 262 260 259 257 254 250 249 247 246 246
329 329 330 330 329 327 325 322 319 317 315 313 310 307 304 302 300 296 291 289 284 278 274 270 267 266 266 265 264 262 259 257 255 253 251 249 248 247
330 330 331 331 331 330 329 326 323 321 319 317 315 312 309 306 303 300 297 294 289 282 277 273 270 268 267 264 262 261 260 258 257 255 254 253 251 249
331 331 332 331 329 329 329 327 324 323 322 321 319 317 314 311 307 302 299 297 293 287 280 275 272 269 266 264 261 259 259 259 258 257 256 254 253 251
331 332 331 330 329 329 329 328 326 324 323 321 320 318 316 314 312 308 304 300 297 291 285 279 275 272 269 265 262 260 261 260 259 258 257 255 253 252
331 331 331 331 331 331 331 330 329 327 325 324 323 321 320 318 315 312 309 305 299 293 287 282 278 274 271 266 265 264 261 260 260 259 259 257 255 254
333 333 334 333 333 334 334 333 331 329 326 324 323 322 321 320 319 317 313 308 303 297 290 285 281 277 271 267 266 265 264 263 261 259 258 256 255 255
333 334 335 335 334 334 333 332 331 329 328 326 325 323 322 321 321 319 318 315 309 302 295 289 284 279 274 269 268 267 265 265 263 259 257 256 254 252
334 336 336 336 335 334 333 331 330 330 329 329 328 327 326 325 325 323 321 319 315 309 301 295 290 285 279 274 271 268 267 266 265 262 260 259 256 254
335 336 337 337 336 336 335 334 333 334 334 334 333 332 331 330 329 328 327 324 321 316 311 304 297 290 283 281 278 273 270 268 266 264 262 259 258 255
335 335 335 336 336 336 337 337 336 337 337 337 337 335 335 334 333 333 331 328 326 322 318 312 303 297 292 288 285 281 275 271 269 269 266 261 259 256
334 335 335 335 336 337 338 337 338 338 339 340 341 340 340 338 337 336 336 335 333 328 323 315 307 303 298 292 290 289 284 279 277 274 270 265 263 260
334 334 335 336 337 337 338 338 338 339 340 342 343 344 343 343 341 339 339 338 336 333 328 321 314 309 303 299 297 293 289 286 282 279 276 273 268 263